Regional Weather Roundup
Issued by NWS Midland/Odessa, TX

Home | Current Version | Previous Version | Text Only | Print | Product List | Glossary On
Versions: 1 2 3 4 5 6 7 8 9 10 11 12 13 14 15 16 17 18 19 20 21 22 23 24 25 26 27 28 29 30 31 32 33 34 35 36 37 38 39 40 41 42 43 44 45 46 47 48 49 50
000
ASUS44 KMAF 260510
RWRMAF
MIDLAND AREA WEATHER ROUNDUP
NATIONAL WEATHER SERVICE MIDLAND TX
1100 PM CST TUE NOV 25 2014

...IN SOUTHWEST TEXAS AND SOUTHEAST NEW MEXICO...

CITY           SKY/WX    TMP DP  RH WIND       PRES   REMARKS
ALPINE         CLEAR     45   9  23 SW13      30.30R WCI  38
ANDREWS        FAIR      44  11  27 W12G17    30.13R WCI  38
ARTESIA        NOT AVBL
BIG SPRING     CLEAR     43  17  34 S9        30.15R WCI  38
CARLSBAD       CLEAR     51   8  17 NW8G20    30.12F
DRYDEN           N/A     50  16  25 W9        30.19F
FORT STOCKTON  CLEAR     46  13  26 SW14      30.17F WCI  40
GUAD PASS      CLEAR     37   8  30 SW28      30.26R WCI  25
HOBBS          CLEAR     45   9  23 W13       30.13S WCI  38
MARFA          CLEAR     36   9  32 S6        30.29S WCI  31
MIDLAND AIRPK  CLEAR     48  14  25 SW8       30.14S
MIDLAND INTL   CLEAR     47  12  24 SW14      30.14R
ODESSA         CLEAR     44  10  25 W12       30.15R WCI  38
PECOS          CLEAR     49  14  25 W17G24    30.17S
PRESIDIO       FAIR      44  16  33 NE5       30.27F
SEMINOLE       CLEAR     41  12  31 W9        30.12S WCI  35
SNYDER         CLEAR     38  21  50 SW8       30.11R WCI  33
WINK           CLEAR     44  10  25 W9        30.14S WCI  39
$$
...OTHER STATIONS IN TEXAS...

CITY           SKY/WX    TMP DP  RH WIND       PRES   REMARKS
ABILENE        CLEAR     47  23  38 S14       30.10F
AMARILLO       CLEAR     41  17  38 W6        30.00R WCI  37
AUSTIN         CLEAR     44  34  67 SW5       30.21S
BROWNSVILLE    CLEAR     46  44  93 CALM      30.32R
CORPUS CHRISTI CLEAR     47  42  83 S8        30.28S
DALLAS FTW     PTCLDY    44  30  57 S12       30.12F WCI  38
DEL RIO        CLEAR     45  33  63 S5        30.22F
EL PASO        PTCLDY    46   8  21 CALM      30.27S
HOUSTON INT    CLEAR     50  37  61 S7        30.23F
LUBBOCK        CLEAR     41  11  29 W10       30.04S WCI  35
SAN ANGELO     CLEAR     37  22  54 SW7       30.16S WCI  32
SAN ANTONIO    CLEAR     53  32  44 SW7       30.23S
WACO           CLEAR     39  33  79 SW7       30.18R WCI  34
WICHITA FALLS  NOT AVBL
$$
...OTHER LOCATIONS IN NEW MEXICO...

CITY           SKY/WX    TMP DP  RH WIND       PRES   REMARKS
ALAMAGORDO     PTCLDY    37   5  25 MISG      30.29R
ALBUQUERQUE    PTCLDY    38   6  26 NW8       30.29S WCI  32
CANNON AFB     CLEAR     45  11  25 NW15      30.07S WCI  38
CLOVIS         CLEAR     45  10  24 W20       30.06S WCI  37
HOLLOMAN AFB   PTCLDY    31   4  30 NE8       30.28S WCI  24
ROSWELL        CLEAR     39  14  36 SW3       30.14R
RUIDOSO        CLEAR     39   5  24 NW13G23   30.25R WCI  32
SANTA FE       CLEAR     35  10  35 N14       30.26R WCI  26
TRUTH OR CONSE CLEAR     39   6  25 CALM      30.29R
TUCUMCARI      CLEAR     45  16  31 W18       30.03F WCI  37
$$



USA.gov is the U.S. government's official web portal to all federal, state and local government web resources and services.